Regional Weather Roundup
Issued by NWS

Home | Current Version | Previous Version | Graphics & Text | Print | Product List | Glossary On
Versions: 1 2 3 4 5 6 7 8 9 10 11 12 13 14 15 16 17 18 19 20 21 22 23 24 25 26 27 28 29 30 31 32 33 34 35 36 37 38 39 40 41 42 43 44 45 46 47 48 49 50
000
ASUS43 KLMK 221602
RWRKY
KENTUCKY REGIONAL WEATHER ROUNDUP
NATIONAL WEATHER SERVICE LOUISVILLE KY
1200 PM EDT SAT JUL 22 2017

NOTE "FAIR" INDICATES FEW OR NO CLOUDS BELOW 12,000 FEET
WITH NO SIGNIFICANT WEATHER AND/OR OBSTRUCTIONS TO VISIBILITY.

KYZ001>023-026-027-061>063-070>075-221700-
WESTERN AND SOUTH CENTRAL KENTUCKY

CITY           SKY/WX    TMP DP  RH WIND       PRES   REMARKS
PADUCAH        SUNNY     92  76  59 W14       29.96R HX 104
HENDERSON      SUNNY     92  77  61 W10       29.96R HX 105
OWENSBORO      MOSUNNY   92  78  63 W12       29.97R HX 107
HOPKINSVILLE   SUNNY     91  77  63 W10       29.99R HX 103
BOWLING GREEN  MOSUNNY   93  76  57 SW13      29.98F HX 105
GLASGOW        NOT AVBL
$$

KYZ024-025-028>034-038-045-046-053-221700-
NORTH CENTRAL KENTUCKY

CITY           SKY/WX    TMP DP  RH WIND       PRES   REMARKS
LOUISVILLE/SDF CLOUDY    94  76  55 W14       29.94S HX 106
LOUISVILLE/LOU CLOUDY    92  77  61 W12       29.95S HX 105
FORT KNOX      CLOUDY    90  76  64 W10       29.97R HX 102
$$

KYZ035>037-039>044-047>052-055>060-089>105-221700-
NORTHEAST KENTUCKY

CITY           SKY/WX    TMP DP  RH WIND       PRES   REMARKS
LEXINGTON      MOSUNNY   90  73  57 W13       29.97F HAZE    HX  98
COVINGTON      PTSUNNY   87  79  76 W12G20    29.92F HX 101
FRANKFORT      MOSUNNY   90  74  59 SW13G21   29.95F HX  99
$$

KYZ054-064>069-076>088-106>120-221700-
SOUTHEAST KENTUCKY

CITY           SKY/WX    TMP DP  RH WIND       PRES   REMARKS
JACKSON        MOSUNNY   89  75  63 VRB5      30.01F HX  99
LONDON         MOSUNNY   89  71  55 SW13      30.02S HX  95
SOMERSET       MOSUNNY   88  72  58 W10       30.03S HX  94
MIDDLESBORO    PTSUNNY   88  75  65 SW3       30.03F HX  98
MONTICELLO     MOSUNNY   90  77  65 W15       30.04S HX 103
$$





USA.gov is the U.S. government's official web portal to all federal, state and local government web resources and services.